ムルコス彗星

124P/Mrkos (2020)

English version
Home page
Updated on August 15, 2020

---------------------------------------------------------------------

・ プロフィール

・ 写真集

・ 軌道要素

Epoch 2020 Apr. 21.0 TT = JDT 2458960.5
T 2020 Apr. 26.88952 TT                                 Rudenko
q   1.6475226            (2000.0)            P               Q
n   0.16307524     Peri.  183.85529     -0.99734513     +0.07274094
a   3.3180076      Node     0.37086     -0.04453545     -0.57254621
e   0.5034603      Incl.   31.51279     -0.05761322     -0.81663921
P   6.04
From 2636 observations 1991 Mar. 15-2020 June 18, mean residual 0".5.

・ 星図

・ 光度変化

        m1 = 15.8 + 5 logΔ + 5.0 log r

---------------------------------------------------------------------

軌道要素はM.P.E.C. 2020-P19に掲載されたものです。
星図はステラナビゲータ Ver.10 (アストロアーツ) で作成したものです。
光度グラフはComet for Windowsで作成したものです。

---------------------------------------------------------------------

Copyright(C) Seiichi Yoshida (comet@aerith.net). All rights reserved.